Location: Tamazert
(32.6352°N, 5.2072°W)
Time: 05:00:04
(UTC+00:00)

Vanguard 1 Rocket - Pass Details

Date: 05 October 2022
Orbit: 650 x 4225 km, 34.3° (Epoch: 05 December)

Event Time Altitude Azimuth Distance (km) Brightness Sun altitude
Rises 00:51:43 0° 286° (WNW) 5,841 11.5 -60.3°
Enters shadow 00:51:47 - 286° (WNW) 5,822 11.5 -60.3°
Reaches altitude 10° 00:56:26 10° 283° (WNW) 4,244 - -59.9°
Maximum altitude 01:06:05 53° 210° (SSW) 1,361 - -59.1°
Drops below altitude 10° 01:11:30 10° 133° (SE) 2,430 - -58.5°
Sets 01:13:32 0° 128° (SE) 3,188 - -58.3°
